Dewpoint
69 72 73 72 73 73 72 71 72 66 65 69 74 73 72 72 73 72 72 71 71 71 70 70 70 70 70 70 72 72 72 71 71 71 71 71 72 72
69 72 73 72 73 73 73 73 73 71 70 71 75 74 76 73 73 74 73 72 71 70 70 69 69 70 70 70 70 71 71 71 71 71 71 71 71 71
72 72 73 76 72 76 73 73 73 72 70 70 76 76 75 75 75 74 74 73 72 70 70 69 69 69 70 70 70 70 70 71 71 71 71 71 71 71
72 72 71 75 73 75 76 76 75 73 70 71 75 75 74 75 76 76 74 73 73 71 69 69 68 68 68 68 68 68 68 69 69 70 70 70 70 71
71 72 71 72 73 72 73 72 74 75 72 71 70 70 74 77 75 75 75 74 73 72 69 68 68 68 67 66 66 65 64 65 66 66 67 68 70 70
71 71 70 71 71 73 73 73 73 73 73 72 72 71 71 76 75 75 74 73 73 71 71 70 69 69 68 66 66 66 63 62 62 63 64 65 67 68
70 70 71 71 70 69 68 71 73 72 71 71 73 68 68 72 74 76 74 77 74 76 71 71 70 70 70 67 69 68 65 64 63 62 62 62 63 64
70 71 71 68 68 68 68 68 70 73 73 71 70 72 73 72 72 74 75 73 70 73 72 71 72 70 70 70 68 67 66 64 63 62 61 61 61 62
71 71 66 61 66 68 68 67 68 67 69 73 71 71 71 71 73 72 74 75 72 76 73 69 73 71 71 69 68 66 65 64 63 63 62 61 61 60
70 68 66 67 65 67 67 69 69 72 73 71 73 74 72 73 72 72 72 74 77 76 74 70 73 71 71 72 66 66 65 64 63 62 61 60 58 58
65 65 66 65 61 63 67 68 68 71 67 68 68 67 65 66 68 71 72 73 74 75 74 71 70 71 72 71 72 66 64 62 61 61 61 59 57 56
66 65 62 62 59 60 65 69 68 69 68 69 70 69 67 68 65 72 73 71 74 73 77 72 72 70 67 70 71 72 71 61 59 59 59 59 56 65
67 67 65 59 57 56 58 69 67 69 70 70 70 68 66 67 68 71 73 73 71 70 72 72 74 74 70 68 70 71 71 70 70 65 55 55 56 61
64 63 67 60 57 56 59 61 60 62 69 68 66 67 67 67 66 67 70 71 71 74 74 74 69 69 71 71 67 70 71 71 70 70 69 60 53 55
63 63 60 59 57 60 59 59 59 66 68 68 65 62 66 66 70 70 71 72 72 72 72 76 72 72 71 68 66 68 68 70 70 69 70 67 66 63
61 59 61 62 60 62 64 65 66 67 67 68 66 65 66 66 66 67 67 69 71 71 74 74 74 73 71 70 70 68 69 67 69 69 69 69 69 68
57 58 57 56 59 64 65 66 66 67 66 67 67 66 65 66 66 67 68 68 70 70 70 72 73 73 73 73 70 68 70 68 68 68 69 66 64 66
55 56 56 56 56 57 60 61 63 64 65 67 67 67 66 64 64 66 66 66 66 67 68 70 70 66 65 64 62 69 69 67 67 68 67 64 62 62
54 55 55 55 56 55 55 58 59 60 67 65 66 66 66 64 63 64 66 66 65 66 68 68 69 67 65 65 65 54 67 67 66 66 66 64 63 62
53 54 55 55 55 55 54 55 58 59 60 62 63 65 66 65 61 63 63 64 64 64 66 69 69 68 66 66 67 66 50 67 65 64 63 61 56 52
53 53 54 54 55 56 55 56 59 59 59 61 63 64 63 66 65 61 61 57 61 64 64 65 67 65 68 66 60 59 61 50 60 65 61 58 56 53
55 54 54 54 56 58 57 59 60 60 61 62 62 62 63 66 64 63 62 62 63 63 64 64 69 68 65 64 63 61 57 52 50 51 52 53 53 50
55 57 57 56 57 59 59 58 58 60 61 62 65 67 62 65 63 63 62 63 63 63 64 64 64 65 64 66 63 59 55 52 51 50 45 51 52 51
Lifted_Index
-1 -3 -4 -5 -5 -6 -5 -5 -5 -4 -4 -4 -4 -5 -5 -5 -4 -4 -4 -4 -4 -3 -2 -2 -1 -1 -1 -1 -2 -2 -2 -2 -1 -1 -1 -2 -2 -2
-1 -3 -4 -5 -6 -6 -6 -5 -5 -5 -4 -4 -5 -5 -5 -5 -5 -5 -5 -4 -4 -3 -3 -2 -1 -1 -1 -1 -1 -2 -2 -2 -1 -1 -1 -1 -2 -2
-2 -2 -4 -5 -6 -7 -7 -6 -6 -5 -5 -5 -5 -5 -5 -5 -5 -5 -5 -5 -5 -4 -3 -2 -2 -1 -1 -1 -1 -1 -1 -1 -2 -2 -1 -1 -1 -1
-2 -3 -3 -4 -6 -7 -7 -7 -6 -6 -5 -6 -6 -6 -6 -6 -6 -6 -6 -6 -5 -5 -4 -3 -2 -1 -1 -1 -0 -0 -1 -1 -1 -1 -1 -2 -1 -1
-3 -3 -4 -4 -6 -6 -6 -6 -6 -6 -6 -6 -6 -6 -6 -6 -6 -7 -7 -6 -6 -5 -5 -4 -3 -2 -2 -1 -1 -0 -0 -0 -0 -0 -1 -1 -1 -1
-4 -4 -4 -5 -5 -5 -5 -6 -6 -6 -6 -6 -6 -5 -5 -6 -6 -7 -7 -6 -6 -6 -5 -5 -3 -3 -2 -2 -1 -1 -1 0 0 0 0 -0 -1 -1
-4 -4 -4 -4 -4 -3 -4 -4 -5 -6 -6 -6 -6 -5 -5 -5 -6 -6 -6 -6 -6 -6 -6 -5 -4 -3 -3 -2 -2 -2 -1 -0 -0 -0 -0 -0 -0 -0
-5 -5 -4 -3 -2 -2 -2 -3 -4 -5 -5 -5 -5 -5 -4 -4 -5 -5 -6 -6 -6 -6 -7 -6 -5 -4 -4 -3 -2 -2 -1 -1 -1 -1 -1 -1 -0 -0
-5 -4 -3 -1 -1 -2 -2 -3 -3 -4 -4 -5 -5 -5 -4 -4 -4 -4 -5 -6 -6 -7 -7 -7 -6 -5 -4 -4 -3 -3 -2 -2 -2 -1 -1 -1 -1 -1
-3 -2 -1 -1 -1 -1 -2 -3 -4 -4 -4 -5 -5 -5 -4 -3 -3 -4 -4 -6 -6 -7 -7 -7 -7 -6 -6 -5 -5 -4 -3 -3 -3 -3 -2 -2 -2 -1
-2 -1 -0 0 1 -0 -1 -3 -4 -4 -4 -4 -4 -4 -3 -2 -2 -3 -4 -6 -7 -7 -7 -7 -7 -7 -6 -6 -6 -5 -5 -4 -4 -3 -3 -3 -2 -2
-2 -1 -0 0 0 -1 -1 -2 -4 -4 -4 -4 -3 -3 -2 -1 -2 -3 -5 -6 -7 -8 -7 -7 -7 -7 -7 -6 -6 -6 -5 -4 -4 -4 -3 -3 -3 -3
-3 -2 -2 -2 -2 -2 -2 -3 -3 -4 -4 -4 -3 -3 -2 -2 -2 -3 -5 -6 -7 -8 -7 -7 -7 -7 -7 -6 -6 -6 -5 -5 -4 -3 -3 -3 -3 -2
-1 -2 -2 -2 -3 -3 -3 -3 -3 -3 -3 -4 -4 -3 -3 -3 -3 -3 -4 -5 -6 -7 -7 -7 -7 -7 -7 -6 -6 -5 -5 -5 -4 -3 -3 -2 -2 -1
1 0 0 -0 -1 -1 -2 -3 -3 -3 -3 -3 -3 -3 -3 -3 -3 -4 -4 -5 -6 -6 -6 -7 -7 -7 -7 -6 -5 -5 -5 -4 -4 -4 -3 -2 -1 -1
2 2 2 2 1 0 -1 -2 -2 -2 -3 -3 -3 -3 -3 -3 -3 -4 -4 -5 -6 -6 -6 -6 -6 -6 -6 -6 -6 -5 -5 -5 -4 -4 -3 -2 -1 -0
4 4 3 3 2 1 -0 -1 -1 -1 -2 -2 -3 -3 -3 -3 -3 -4 -4 -5 -5 -6 -6 -6 -6 -6 -6 -6 -6 -6 -5 -4 -4 -3 -2 -1 -0 -0
5 5 4 4 3 2 1 1 -0 -1 -1 -2 -3 -3 -3 -2 -2 -3 -4 -4 -4 -4 -5 -5 -5 -5 -5 -5 -5 -5 -4 -4 -3 -2 -1 -1 -0 -0
6 5 4 4 4 4 3 2 1 0 -1 -1 -2 -3 -3 -2 -2 -2 -3 -3 -3 -3 -4 -4 -4 -4 -4 -4 -4 -4 -3 -3 -2 -1 -1 -1 -1 -0
6 5 5 4 4 4 4 3 2 1 -0 -1 -1 -2 -3 -2 -2 -2 -2 -3 -3 -3 -3 -3 -3 -3 -4 -4 -4 -3 -2 -2 -2 -1 -1 -1 -0 0
6 5 5 4 4 3 3 3 2 1 0 -1 -1 -2 -2 -2 -2 -2 -2 -2 -3 -3 -3 -3 -3 -3 -3 -3 -3 -2 -2 -1 -1 -1 -0 0 1 1
6 5 5 5 4 3 2 2 1 0 -0 -1 -1 -1 -1 -2 -2 -2 -3 -3 -3 -3 -3 -3 -3 -3 -3 -3 -3 -2 -1 -1 -1 -0 0 1 1 2
6 5 5 5 4 3 2 1 1 0 -0 -1 -1 -1 -1 -2 -2 -3 -3 -3 -3 -3 -3 -3 -3 -3 -3 -3 -2 -2 -2 -1 -0 0 1 1 2 3